Manhattan, KS

12:12 AM CDT on August 23, 2017 (GMT -0500)
Manhattan Regional

Weather History for KMHK - April, 2012

Change the Weather History Date:

Thursday, April 5, 2012

  Actual Average Record
Temperature  
Mean Temperature 52 °F 51 °F  
Max Temperature 61 °F 64 °F 87 °F (2016)
Min Temperature 42 °F 38 °F 26 °F (2011)
Degree Days  
Heating Degree Days 13 15  
Month to date heating degree days 23 77  
Since 1 July heating degree days 3988 4913  
Cooling Degree Days 0 0  
Month to date cooling degree days 14 0  
Year to date cooling degree days 55 2  
Growing Degree Days 3 (Base 50)    
Moisture  
Dew Point 48 °F    
Average Humidity 81    
Maximum Humidity 100    
Minimum Humidity 62    
Precipitation  
Precipitation 0.00 in 0.05 in 1.80 in (1999)
Month to date precipitation 1.39 0.25  
Year to date precipitation 5.46 4.17  
Sea Level Pressure  
Sea Level Pressure 29.91 in    
Wind  
Wind Speed 7 mph (NE)    
Max Wind Speed 15 mph    
Max Gust Speed 18 mph    
Visibility 9 miles    
Events      
T = Trace of Precipitation, MM = Missing Value Source: NWS Daily Summary

Daily Weather History Graph

Daily Weather History Graph

Search for Another Location

Airport or City:

Trip Planner

Search our weather history database for the weather conditions in past years. The results will help you decide how hot, cold, wet, or windy it might be!

Date:

Astronomy

Apr. 05, 2012 Rise Set
Actual Time 7:04 AM CDT 7:54 PM CDT
Civil Twilight 6:37 AM CDT 8:22 PM CDT
Nautical Twilight 6:04 AM CDT 8:54 PM CDT
Astronomical Twilight 5:31 AM CDT 9:27 PM CDT
Moon 7:02 PM CDT (4/5) 6:00 AM CDT (4/5)
Length of Visible Light 13h 45m
Length of Day
12h 50m
Waxing Gibbous, 98% of the Moon is Illuminated
Apr 5
Waxing Gibbous
Apr 6
Full
Apr 13
Last Quarter
Apr 21
New
Apr 29
First Quarter

Hourly Weather History & Observations

Time (CDT) Temp. Dew Point Humidity Pressure Visibility Wind Dir Wind Speed Gust Speed Precip Events Conditions
12:52 AM 54.0 °F 52.0 °F 93% 29.79 in 7.0 mi NE 5.8 mph - N/A   Overcast
1:52 AM 53.1 °F 51.1 °F 93% 29.79 in 6.0 mi NE 9.2 mph - N/A   Overcast
2:52 AM 53.1 °F 51.1 °F 93% 29.79 in 6.0 mi NNE 6.9 mph - N/A   Overcast
3:52 AM 52.0 °F 51.1 °F 97% 29.79 in 6.0 mi NNE 6.9 mph - N/A   Overcast
4:52 AM 52.0 °F 50.0 °F 93% 29.81 in 7.0 mi NNE 6.9 mph - N/A   Overcast
5:23 AM 51.8 °F 51.8 °F 100% 29.82 in 3.0 mi NNE 5.8 mph - N/A   Overcast
5:30 AM 51.8 °F 51.8 °F 100% 29.82 in 2.5 mi NNE 8.1 mph - N/A   Overcast
5:32 AM 51.8 °F 51.8 °F 100% 29.82 in 3.0 mi NNE 8.1 mph - N/A   Overcast
5:52 AM 52.0 °F 51.1 °F 97% 29.83 in 4.0 mi NE 8.1 mph - N/A   Overcast
6:52 AM 51.1 °F 50.0 °F 96% 29.84 in 9.0 mi NE 12.7 mph - N/A   Overcast
7:52 AM 50.0 °F 48.0 °F 93% 29.87 in 8.0 mi NE 9.2 mph - N/A   Overcast
8:04 AM 50.0 °F 48.2 °F 94% 29.87 in 9.0 mi ENE 9.2 mph - N/A   Overcast
8:41 AM 51.8 °F 48.2 °F 88% 29.88 in 10.0 mi NE 9.2 mph - N/A   Overcast
8:52 AM 51.1 °F 48.9 °F 92% 29.89 in 10.0 mi NE 9.2 mph - N/A   Overcast
9:15 AM 51.8 °F 48.2 °F 88% 29.89 in 10.0 mi NNE 6.9 mph - N/A   Overcast
9:25 AM 51.8 °F 48.2 °F 88% 29.90 in 10.0 mi North 6.9 mph - N/A   Overcast
9:52 AM 50.0 °F 48.0 °F 93% 29.92 in 10.0 mi NE 13.8 mph - N/A   Overcast
10:52 AM 51.1 °F 48.0 °F 89% 29.93 in 10.0 mi NE 12.7 mph - N/A   Overcast
11:16 AM 51.8 °F 48.2 °F 88% 29.94 in 10.0 mi NE 11.5 mph - N/A   Overcast
11:52 AM 52.0 °F 48.0 °F 86% 29.94 in 10.0 mi NNE 11.5 mph - N/A   Overcast
12:02 PM 51.8 °F 46.4 °F 82% 29.94 in 10.0 mi NE 10.4 mph - N/A   Overcast
12:36 PM 53.6 °F 48.2 °F 82% 29.94 in 10.0 mi NE 10.4 mph - N/A   Overcast
12:52 PM 53.1 °F 48.0 °F 83% 29.96 in 10.0 mi NE 13.8 mph - N/A   Overcast
1:28 PM 53.6 °F 48.2 °F 82% 29.96 in 10.0 mi NE 6.9 mph - N/A   Overcast
1:52 PM 53.1 °F 48.0 °F 83% 29.96 in 10.0 mi NE 8.1 mph - N/A   Overcast
2:40 PM 55.4 °F 48.2 °F 77% 29.96 in 10.0 mi ENE 8.1 mph - N/A   Overcast
2:47 PM 55.4 °F 48.2 °F 77% 29.96 in 10.0 mi East 5.8 mph - N/A   Overcast
2:52 PM 55.0 °F 48.0 °F 77% 29.97 in 10.0 mi Variable 4.6 mph - N/A   Overcast
3:05 PM 57.2 °F 48.2 °F 72% 29.96 in 10.0 mi East 5.8 mph - N/A   Overcast
3:52 PM 57.9 °F 50.0 °F 75% 29.96 in 10.0 mi Variable 5.8 mph - N/A   Overcast
4:52 PM 59.0 °F 48.9 °F 69% 29.96 in 10.0 mi East 8.1 mph - N/A   Overcast
5:52 PM 60.1 °F 48.9 °F 67% 29.96 in 10.0 mi East 9.2 mph - N/A   Scattered Clouds
6:52 PM 59.0 °F 46.9 °F 64% 29.97 in 10.0 mi ENE 10.4 mph - N/A   Partly Cloudy
7:52 PM 55.9 °F 45.0 °F 67% 29.98 in 10.0 mi East 5.8 mph - N/A   Clear
8:52 PM 51.1 °F 45.0 °F 80% 30.01 in 10.0 mi Calm Calm - N/A   Clear
9:52 PM 48.0 °F 45.0 °F 89% 30.04 in 10.0 mi Calm Calm - N/A   Clear
10:52 PM 46.0 °F 44.1 °F 93% 30.06 in 9.0 mi Calm Calm - N/A   Clear
11:52 PM 43.0 °F 43.0 °F 100% 30.07 in 8.0 mi Calm Calm - N/A   Clear